STARLINK-32769 (62602 NORAD) Tracking and Keplerian Element Data

This shows tracking and keplerian element data for the satellite.

Feedback or suggestion? Click here.




ElementValue
Catalog62602
NameSTARLINK-32769
Epoch Orbit5344
Epoch Day354.03679724
Epoch Year2025
RAAN7.6612
Inclination43.0034
Eccentricity9.46E-05
Argument of Perigee276.192
Mean Anonmoly83.8824
Mean Motion15.27577065
Decay Rate0.00012768
L11 62602U 25008R 25354.03679724 .00012768 00000+0 47275-3 0 9999
L22 62602 43.0034 7.6612 0000946 276.1920 83.8824 15.27577065 53444



Live tracking and technical data element details for STARLINK-32769 (NORAD 62602). STARLINK-32769 can be tracked NOW for your location showing map with azimuth and elevation plus other details from your city location.







IsCatalogInMostPopularTable: catalog: 62602, numindb: 263
Update: records affected: 1



GetName: 62602 STARLINK-32769

Hit Count: updated at: Thu, 16 Apr 2026 04:20:55 GMT